[[{"header":{"parameterUnit":"m.s-1","parameterCategory":1,"la1":30.2991,"la2":30.254,"lo1":-89.0895,"lo2":-89.0444,"dy":0.0017,"dx":0.0017,"nx":28,"ny":28,"refTime":"2025-03-01T03:00:00:Z","depth":0,"parameterNumber":2,"parameterNumberName":"U-component_of_WINDS"},"data":[0,0,0,0,0,0,0,0,0,0,0,0,0,0,0,0,0,0,0,0,0,0,0,0,0,0,0,0,0,0,0,0,0,0,0,0,0,0,0,0,0,0,0,0,0,0,0,0,0,0,0,0,0,0,0,0,0,0,1.083,1.0831,0,1.0891,1.0891,1.0892,1.089,1.0889,1.0888,1.0888,1.0951,1.0953,1.0956,0,0,0,0,0,0,0,0,0,0,0,0,0,1.0712,1.0715,1.083,1.0831,1.0831,1.089,1.0891,1.0892,1.089,1.0889,1.0888,1.0887,1.095,1.0953,1.0956,0,0,0,0,0,0,0,0,0,0,0,0,0,1.0767,1.0715,1.083,1.0837,1.0839,1.089,1.0891,1.0892,1.089,1.0889,1.0888,1.0887,1.0949,1.0953,1.0956,1.1004,0,0,1.0968,1.0969,0,0,0,0,0,0,0,0,1.0764,1.0772,1.0836,1.0837,1.0839,1.0881,1.0873,1.093,1.0891,1.0871,1.0888,1.0886,1.0929,1.0934,1.0948,1.1007,1.101,1.0968,1.097,1.0972,1.0973,0,0,0,0,0,0,0,1.076,1.0769,1.0854,1.0836,1.0838,1.0838,1.0844,1.0884,1.0906,1.0872,1.0872,1.088,1.0929,1.0945,1.095,1.1011,1.0968,1.0971,1.0973,1.0975,1.1112,1.1113,0,0,0,0,0,0,1.0755,1.0766,1.0852,1.0856,1.0797,1.0841,1.0848,1.0869,1.0906,1.091,1.0881,1.0879,1.0939,1.0945,1.0952,1.101,1.0972,1.0975,1.0977,1.111,1.1112,1.1113,0,0,0,0,0,0,1.0752,1.0763,1.0849,1.0811,1.0822,1.0844,1.0868,1.0871,1.0886,1.0912,1.0916,1.0892,1.0938,1.0947,1.0991,1.1012,1.0977,1.098,1.1108,1.1111,1.1113,1.1127,0,0,0,0,0,0,1.0749,1.0762,1.078,1.0811,1.0824,1.0887,1.0869,1.0873,1.0892,1.0891,1.0924,1.0928,1.0938,1.0986,1.0995,1.1017,1.0983,1.1107,1.1109,1.1112,1.1124,1.1129,1.1133,0,0,0,0,0,1.0745,1.0782,1.0781,1.0792,1.0847,1.0889,1.0896,1.0906,1.0894,1.0913,1.0929,1.0927,1.1008,1.099,1.1,1.1024,1.1105,1.1109,1.1112,1.1123,1.1128,1.1133,0,0,0,0,0,0,1.0754,1.0786,1.0786,1.0834,1.0859,1.0888,1.0912,1.0912,1.0941,1.0939,1.0951,1.0958,1.1002,1.1017,1.0996,1.1072,1.1055,1.1061,1.106,1.1066,1.107,1.1065,1.0986,0,0,0,0,0,1.0761,1.0792,1.0819,1.0859,1.0871,1.089,1.0908,1.0914,1.094,1.095,1.097,1.0995,1.1027,1.1047,1.1077,1.1127,1.1133,1.1148,1.1152,1.1155,1.116,1.1186,1.1193,1.1124,1.1124,1.1124,0,0,1.0777,1.0799,1.0817,1.0861,1.0881,1.0912,1.0898,1.0932,1.0956,1.0956,1.0998,1.1013,1.1043,1.1089,1.1111,1.1104,1.118,1.1159,1.1162,1.1165,1.119,1.1197,1.1203,1.1126,1.1126,1.1125,0,0,1.0822,1.0841,1.0877,1.0896,1.0926,1.0938,1.0946,1.0976,1.0986,1.1029,1.1029,1.1057,1.1111,1.1132,1.1149,1.1201,1.12,1.121,1.1233,1.1258,1.1264,1.1268,1.1286,1.1293,1.1215,1.1215,1.1215,0,1.0838,1.0885,1.0895,1.0929,1.0948,1.0948,1.0984,1.1003,1.1041,1.1054,1.1045,1.1112,1.1132,1.1183,1.1195,1.121,1.122,1.1207,1.1262,1.1267,1.1272,1.1289,1.1295,1.1216,1.1216,1.1216,1.1216,0,1.0903,1.0935,1.096,1.0996,1.1018,1.1053,1.1068,1.1089,1.1093,1.1105,1.1149,1.1173,1.1207,1.122,1.1224,1.1272,1.1266,1.1259,1.1243,1.1279,1.1295,1.1302,1.1217,1.1217,1.1217,1.1217,0,0,1.0955,1.0996,1.1004,1.102,1.1053,1.1078,1.1113,1.1146,1.1164,1.119,1.1219,1.1264,1.1258,1.1278,1.1284,1.1307,1.1345,1.1298,1.1298,1.1305,1.1398,1.1402,1.141,1.1345,1.1346,1.1347,1.1395,0,1.1003,1.1063,1.1073,1.1126,1.1156,1.1157,1.1187,1.121,1.1223,1.125,1.1264,1.1296,1.1286,1.1297,1.132,1.1336,1.1364,1.1333,1.1372,1.1373,1.1364,1.1418,1.1423,1.1467,1.1402,1.1403,1.1404,0,1.1066,1.1093,1.115,1.1177,1.119,1.1217,1.1248,1.1274,1.13,1.1308,1.1329,1.1333,1.1369,1.1351,1.14,1.1378,1.1395,1.1405,1.1407,1.141,1.139,1.1423,1.1482,1.1488,1.1414,1.1413,1.1412,0,1.1098,1.1149,1.1188,1.1202,1.1236,1.1254,1.1269,1.1294,1.1313,1.134,1.1353,1.1384,1.1401,1.1425,1.1437,1.1423,1.1485,1.1468,1.1492,1.1491,1.1504,1.1503,1.1566,1.1516,1.1516,1.1516,1.1516,0,1.115,1.1184,1.1203,1.1227,1.1265,1.1276,1.1314,1.1328,1.135,1.1377,1.138,1.1406,1.142,1.1448,1.1457,1.1496,1.1504,1.1511,1.1513,1.151,1.1509,1.1521,1.1518,1.1518,1.1517,1.1517,1.1516,0,1.1191,1.1206,1.1249,1.1277,1.1284,1.1311,1.1335,1.1359,1.1371,1.1405,1.1414,1.1434,1.1466,1.148,1.1521,1.1527,1.1571,1.1571,1.1562,1.1563,1.1585,1.1583,1.1658,1.1668,1.1611,1.1612,1.1612,0,1.1223,1.1249,1.128,1.1298,1.1313,1.1343,1.1362,1.1373,1.1393,1.1424,1.1444,1.1477,1.1503,1.1555,1.1573,1.1604,1.1604,1.1629,1.1609,1.1605,1.1604,1.1602,1.1604,1.1632,1.1632,1.1633,1.1633,0,1.1278,1.1284,1.1311,1.1341,1.1364,1.1388,1.1412,1.1427,1.1442,1.1464,1.1497,1.1518,1.1558,1.159,1.1622,1.1637,1.1638,1.1639,1.1646,1.1644,1.1637,1.164,1.1571,1.1637,1.1637,1.1637,1.1637,1.1636,1.1316,1.1338,1.1363,1.1394,1.1412,1.1434,1.1458,1.1473,1.15,1.1534,1.1539,1.1574,1.1599,1.1641,1.1658,1.1685,1.1679,1.1689,1.1692,1.1694,1.1695,1.1633,1.1691,1.1691,1.1691,1.1691,1.1691,0,1.137,1.1386,1.1414,1.1446,1.147,1.1468,1.1494,1.1514,1.1545,1.1567,1.1593,1.1631,1.1662,1.1682,1.1713,1.1731,1.1732,1.1739,1.1737,1.174,1.1699,1.1689,1.1737,1.1737,1.1737,1.1737,1.1737,1.1737,1.1401,1.1439,1.1448,1.1495,1.1511,1.1545,1.1559,1.158,1.1598,1.1639,1.1665,1.1677,1.1699,1.1732,1.176,1.1765,1.1776,1.1783,1.1788,1.1748,1.1744,1.1739,1.173,1.1785,1.1785,1.1827,1.1827,1.1827]},{"header":{"parameterUnit":"m.s-1","parameterCategory":1,"la1":30.2991,"la2":30.254,"lo1":-89.0895,"lo2":-89.0444,"dy":0.0017,"dx":0.0017,"nx":28,"ny":28,"refTime":"2025-03-01T03:00:00:Z","depth":0,"parameterNumber":3,"parameterNumberName":"V-component_of_WINDS"},"data":[0,0,0,0,0,0,0,0,0,0,0,0,0,0,0,0,0,0,0,0,0,0,0,0,0,0,0,0,0,0,0,0,0,0,0,0,0,0,0,0,0,0,0,0,0,0,0,0,0,0,0,0,0,0,0,0,0,0,1.4918,1.4918,0,1.4886,1.4886,1.4886,1.4854,1.4854,1.4853,1.4853,1.4819,1.4818,1.4818,0,0,0,0,0,0,0,0,0,0,0,0,0,1.4951,1.4951,1.4918,1.4918,1.4918,1.4886,1.4886,1.4885,1.4854,1.4854,1.4853,1.4853,1.4819,1.4818,1.4818,0,0,0,0,0,0,0,0,0,0,0,0,0,1.493,1.4951,1.4918,1.4898,1.4896,1.4886,1.4886,1.4885,1.4854,1.4854,1.4853,1.4852,1.4819,1.4818,1.4818,1.4825,0,0,1.4815,1.4815,0,0,0,0,0,0,0,0,1.4931,1.4929,1.4902,1.49,1.4897,1.4874,1.4885,1.4865,1.4854,1.487,1.4853,1.4852,1.4837,1.4835,1.483,1.4823,1.4822,1.4815,1.4815,1.4814,1.4814,0,0,0,0,0,0,0,1.4933,1.493,1.4906,1.4901,1.4899,1.489,1.4887,1.4881,1.4858,1.4869,1.4866,1.4863,1.4836,1.4831,1.4829,1.4821,1.4815,1.4814,1.4814,1.4814,1.4818,1.4818,0,0,0,0,0,0,1.4937,1.4931,1.4907,1.4905,1.4913,1.489,1.4886,1.4882,1.4858,1.4853,1.4864,1.4862,1.4833,1.483,1.4828,1.4834,1.4814,1.4813,1.4813,1.4817,1.4818,1.4819,0,0,0,0,0,0,1.4938,1.4935,1.4908,1.4917,1.4913,1.489,1.4886,1.4881,1.4877,1.4854,1.4849,1.4863,1.4832,1.4829,1.4826,1.4833,1.4813,1.4812,1.4817,1.4817,1.4818,1.4848,0,0,0,0,0,0,1.4939,1.4936,1.4939,1.4918,1.4913,1.4907,1.4886,1.4881,1.4875,1.4873,1.4852,1.4848,1.4832,1.4827,1.4825,1.4831,1.4812,1.4816,1.4817,1.4818,1.4846,1.485,1.4853,0,0,0,0,0,1.4941,1.4948,1.4939,1.4936,1.4916,1.4907,1.4905,1.4886,1.4876,1.4879,1.4864,1.4849,1.4833,1.4827,1.4824,1.4831,1.4815,1.4817,1.4818,1.4845,1.4849,1.4852,0,0,0,0,0,0,1.4971,1.4945,1.4935,1.4936,1.4924,1.4902,1.4905,1.4891,1.4881,1.4879,1.4856,1.4852,1.4851,1.484,1.4835,1.4836,1.4822,1.4823,1.4843,1.4847,1.485,1.4852,1.4811,0,0,0,0,0,1.4977,1.4973,1.4951,1.4954,1.4949,1.4928,1.4923,1.491,1.4896,1.4891,1.4876,1.4863,1.4855,1.4851,1.4842,1.4844,1.4839,1.4847,1.4851,1.4853,1.4854,1.4854,1.4857,1.4823,1.4823,1.4823,0,0,1.4991,1.4977,1.4975,1.496,1.4949,1.4944,1.4924,1.492,1.4916,1.489,1.4886,1.4875,1.4859,1.4859,1.4858,1.485,1.4863,1.4855,1.4858,1.4857,1.4856,1.4859,1.4862,1.4824,1.4824,1.4824,0,0,1.5014,1.5003,1.5004,1.4994,1.4978,1.4964,1.4964,1.4944,1.4936,1.4932,1.4912,1.4907,1.4894,1.4883,1.4876,1.4895,1.488,1.4893,1.491,1.491,1.4913,1.4915,1.4921,1.4923,1.4894,1.4894,1.4894,0,1.5033,1.5026,1.5006,1.5004,1.4997,1.4974,1.4975,1.4966,1.4948,1.4943,1.4935,1.4918,1.4906,1.4902,1.4907,1.4902,1.4901,1.4895,1.4914,1.4916,1.4918,1.4923,1.4926,1.4895,1.4895,1.4895,1.4895,0,1.505,1.5045,1.5048,1.5031,1.5025,1.5024,1.5004,1.5,1.4987,1.4974,1.497,1.4954,1.4942,1.494,1.4927,1.4935,1.493,1.4918,1.4903,1.4923,1.4928,1.493,1.4898,1.4897,1.4897,1.4896,0,0,1.5091,1.5063,1.5065,1.5057,1.5037,1.5033,1.5031,1.5019,1.5016,1.5004,1.5001,1.4991,1.4979,1.4971,1.4957,1.4957,1.4973,1.4945,1.4944,1.495,1.4979,1.4988,1.4991,1.4963,1.4963,1.4964,1.498,0,1.511,1.5105,1.5087,1.5087,1.5082,1.506,1.5058,1.5046,1.5033,1.5027,1.5013,1.5006,1.4992,1.4987,1.4986,1.4971,1.4978,1.497,1.4959,1.4959,1.4964,1.4993,1.5002,1.5019,1.4982,1.4982,1.4982,0,1.5131,1.5121,1.5121,1.5102,1.5099,1.5097,1.5085,1.5079,1.5065,1.5056,1.5047,1.5031,1.5027,1.5013,1.5007,1.5002,1.4996,1.4988,1.4989,1.4986,1.4972,1.4991,1.5024,1.5026,1.4985,1.4985,1.4985,0,1.516,1.5147,1.5145,1.5139,1.5116,1.5116,1.5106,1.5091,1.5085,1.5074,1.507,1.5058,1.5052,1.5043,1.5025,1.5017,1.502,1.5005,1.5012,1.5013,1.5013,1.5014,1.5045,1.5011,1.5011,1.5011,1.5011,0,1.5183,1.5184,1.5158,1.5156,1.5156,1.5136,1.5136,1.5124,1.5111,1.5106,1.5087,1.5083,1.5059,1.5052,1.5038,1.5034,1.5032,1.5024,1.502,1.5025,1.5026,1.5021,1.5019,1.5012,1.5011,1.5011,1.5011,0,1.5216,1.5198,1.5194,1.5173,1.5168,1.5169,1.5151,1.5148,1.5135,1.5129,1.5127,1.5105,1.5097,1.5077,1.5063,1.5053,1.5053,1.5046,1.5058,1.5056,1.5063,1.5063,1.5092,1.5095,1.506,1.506,1.5061,0,1.5231,1.5231,1.521,1.5206,1.5198,1.5191,1.5185,1.5165,1.5159,1.5142,1.5142,1.5131,1.5122,1.5109,1.5091,1.508,1.5073,1.5084,1.5071,1.5076,1.5072,1.5072,1.5072,1.5087,1.5087,1.5087,1.5088,0,1.5261,1.5252,1.5244,1.5233,1.5226,1.5217,1.5206,1.5203,1.518,1.5175,1.5166,1.5158,1.5144,1.5134,1.512,1.5109,1.5095,1.5092,1.5093,1.5098,1.5105,1.5101,1.5066,1.5091,1.5091,1.5091,1.5091,1.509,1.5285,1.5283,1.5268,1.526,1.525,1.524,1.5237,1.5223,1.5215,1.5202,1.5191,1.5182,1.5167,1.5147,1.5138,1.5131,1.5123,1.5125,1.5125,1.5126,1.5128,1.5107,1.5128,1.5128,1.5128,1.5128,1.5128,0,1.5313,1.5302,1.5295,1.528,1.5273,1.5261,1.5248,1.5243,1.5236,1.5224,1.5215,1.5204,1.5194,1.5176,1.5164,1.5162,1.5155,1.5159,1.5159,1.5157,1.5135,1.5135,1.5165,1.5165,1.5165,1.5165,1.5165,1.5165,1.5326,1.5323,1.5313,1.5305,1.5294,1.5286,1.528,1.527,1.526,1.5249,1.5241,1.5229,1.5214,1.5201,1.5191,1.5186,1.5182,1.5189,1.5182,1.5162,1.5158,1.5155,1.5155,1.5189,1.5189,1.5204,1.5204,1.5204]}]]